RYR61CH EGSS-LBSF

Flight info

Callsign RYR61CH
Flight time 2h 48m
Altitude 35000
Route CLN P44 RATLO M197 REDFA DCT TACHA DCT SUSET DCT OTMEC DCT OMELO DCT PEPIK DCT KEROP DCT PELOV DCT OSVIX DCT RAVAK DCT NISVA
Aircraft B738/M-SDE2E3FGHIRWXY/LB1

Departure

Time 2026-05-06 14:54
Airport London Stansted Airport (EGSS)

Arrival

Time 2026-05-06 17:43
Airport Sofia Airport (LBSF)
Time Latitude Longitude Altitude Speed Heading
2026-05-06 14:38 51.89129 0.25525 348 ft 0 kts 54°
2026-05-06 14:45 51.89129 0.25524 348 ft 1 kts 54°
2026-05-06 14:45 51.89122 0.25509 357 ft 2 kts 54°
2026-05-06 14:45 51.89110 0.25487 358 ft 3 kts 23°
2026-05-06 14:45 51.89094 0.25484 355 ft 3 kts 336°
2026-05-06 14:46 51.89078 0.25501 350 ft 3 kts 315°
2026-05-06 14:46 51.89070 0.25515 354 ft 1 kts 312°
2026-05-06 14:46 51.89068 0.25518 353 ft 0 kts 312°
2026-05-06 14:48 51.89071 0.25514 354 ft 2 kts 312°
2026-05-06 14:49 51.89093 0.25474 356 ft 8 kts 312°
2026-05-06 14:49 51.89148 0.25377 356 ft 14 kts 313°
2026-05-06 14:49 51.89202 0.25240 352 ft 14 kts 304°
2026-05-06 14:49 51.89236 0.25104 348 ft 14 kts 250°
2026-05-06 14:50 51.89169 0.24967 350 ft 18 kts 221°
2026-05-06 14:50 51.89069 0.24819 353 ft 21 kts 222°
2026-05-06 14:50 51.88952 0.24643 351 ft 25 kts 223°
2026-05-06 14:50 51.88819 0.24443 348 ft 27 kts 223°
2026-05-06 14:51 51.88672 0.24224 354 ft 30 kts 223°
2026-05-06 14:51 51.88520 0.23995 355 ft 30 kts 223°
2026-05-06 14:51 51.88367 0.23764 352 ft 30 kts 223°
2026-05-06 14:51 51.88212 0.23532 348 ft 30 kts 223°
2026-05-06 14:52 51.88057 0.23296 351 ft 31 kts 219°
2026-05-06 14:52 51.87900 0.23065 351 ft 31 kts 223°
2026-05-06 14:52 51.87743 0.22829 351 ft 31 kts 222°
2026-05-06 14:52 51.87588 0.22597 357 ft 30 kts 223°
2026-05-06 14:53 51.87439 0.22375 340 ft 28 kts 223°
2026-05-06 14:53 51.87438 0.22139 337 ft 23 kts 308°
2026-05-06 14:53 51.87546 0.22053 335 ft 17 kts 34°
2026-05-06 14:53 51.87677 0.22249 333 ft 50 kts 42°
2026-05-06 14:54 51.88107 0.22890 335 ft 116 kts 43°
2026-05-06 14:54 51.88830 0.23971 419 ft 160 kts 41°
2026-05-06 14:54 51.89642 0.25210 1194 ft 161 kts 40°
2026-05-06 14:54 51.90471 0.26500 1944 ft 168 kts 40°
2026-05-06 14:55 51.91228 0.27903 2844 ft 166 kts 56°
2026-05-06 14:55 51.91598 0.29657 3682 ft 168 kts 80°
2026-05-06 14:55 51.91500 0.31714 3986 ft 204 kts 103°
2026-05-06 14:55 51.90928 0.34028 4024 ft 237 kts 112°
2026-05-06 14:56 51.90212 0.36498 4508 ft 242 kts 113°
2026-05-06 14:56 51.89497 0.38968 4877 ft 250 kts 113°
2026-05-06 14:56 51.88730 0.41598 5359 ft 263 kts 114°
2026-05-06 14:56 51.87940 0.44264 6282 ft 261 kts 114°
2026-05-06 14:57 51.87164 0.46929 7072 ft 265 kts 110°
2026-05-06 14:57 51.86962 0.49889 7670 ft 271 kts 80°
2026-05-06 14:57 51.87346 0.52910 8343 ft 278 kts 76°
2026-05-06 14:57 51.87785 0.55998 9050 ft 285 kts 75°
2026-05-06 14:58 51.88237 0.59157 9734 ft 292 kts 75°
2026-05-06 14:58 51.88692 0.62403 10353 ft 300 kts 75°
2026-05-06 14:58 51.89163 0.65816 10584 ft 323 kts 76°
2026-05-06 14:58 51.89659 0.69479 10924 ft 340 kts 76°
2026-05-06 14:59 51.90163 0.73272 11471 ft 349 kts 77°
2026-05-06 14:59 51.90667 0.77130 12187 ft 352 kts 77°
2026-05-06 14:59 51.91174 0.81042 12901 ft 357 kts 77°
2026-05-06 14:59 51.91684 0.84999 13627 ft 360 kts 77°
2026-05-06 15:00 51.92196 0.88990 14274 ft 364 kts 77°
2026-05-06 15:00 51.92712 0.93029 14890 ft 368 kts 77°
2026-05-06 15:00 51.93230 0.97101 15542 ft 371 kts 78°
2026-05-06 15:00 51.93751 1.01210 16204 ft 374 kts 78°
2026-05-06 15:01 51.94275 1.05350 16819 ft 378 kts 78°
2026-05-06 15:01 51.94805 1.09547 17420 ft 382 kts 78°
2026-05-06 15:01 51.95336 1.13770 18059 ft 385 kts 78°
2026-05-06 15:01 51.95874 1.18059 18613 ft 389 kts 78°
2026-05-06 15:02 51.96413 1.22372 19151 ft 392 kts 78°
2026-05-06 15:02 51.96955 1.26725 19688 ft 395 kts 78°
2026-05-06 15:02 51.97500 1.31113 20210 ft 398 kts 78°
2026-05-06 15:02 51.98048 1.35539 20737 ft 402 kts 78°
2026-05-06 15:03 51.98598 1.39993 21237 ft 405 kts 78°
2026-05-06 15:03 51.99152 1.44500 21746 ft 408 kts 78°
2026-05-06 15:03 51.99708 1.49032 22251 ft 411 kts 78°
2026-05-06 15:03 52.00267 1.53605 22747 ft 415 kts 79°
2026-05-06 15:04 52.00827 1.58209 23233 ft 417 kts 79°
2026-05-06 15:04 52.01390 1.62845 23676 ft 421 kts 79°
2026-05-06 15:04 52.01955 1.67522 24077 ft 423 kts 79°
2026-05-06 15:04 52.02522 1.72227 24488 ft 425 kts 79°
2026-05-06 15:05 52.03089 1.76947 24882 ft 428 kts 79°
2026-05-06 15:05 52.03658 1.81706 25269 ft 430 kts 79°
2026-05-06 15:05 52.04228 1.86488 25653 ft 433 kts 79°
2026-05-06 15:05 52.04799 1.91298 26026 ft 435 kts 79°
2026-05-06 15:06 52.05371 1.96138 26403 ft 437 kts 79°
2026-05-06 15:06 52.05945 2.01008 26763 ft 440 kts 80°
2026-05-06 15:06 52.06519 2.05892 27119 ft 442 kts 80°
2026-05-06 15:06 52.07095 2.10816 27475 ft 444 kts 80°
2026-05-06 15:07 52.07670 2.15751 27815 ft 446 kts 80°
2026-05-06 15:07 52.08247 2.20721 28149 ft 449 kts 80°
2026-05-06 15:07 52.08817 2.25654 28486 ft 450 kts 80°
2026-05-06 15:07 52.09403 2.30735 28840 ft 452 kts 80°
2026-05-06 15:08 52.09973 2.35700 29152 ft 454 kts 80°
2026-05-06 15:08 52.10560 2.40825 29471 ft 456 kts 81°
2026-05-06 15:08 52.11130 2.45832 29774 ft 458 kts 81°
2026-05-06 15:08 52.11780 2.50892 30057 ft 460 kts 76°
2026-05-06 15:09 52.12572 2.55957 30314 ft 461 kts 81°
2026-05-06 15:09 52.12851 2.61132 30617 ft 458 kts 91°
2026-05-06 15:09 52.12815 2.66298 31014 ft 456 kts 92°
2026-05-06 15:09 52.12745 2.71455 31324 ft 455 kts 92°
2026-05-06 15:10 52.12672 2.76603 31653 ft 455 kts 92°
2026-05-06 15:10 52.12606 2.81746 31947 ft 455 kts 92°
2026-05-06 15:10 52.12550 2.86883 32263 ft 454 kts 92°
2026-05-06 15:10 52.12503 2.92018 32556 ft 454 kts 92°
2026-05-06 15:11 52.12459 2.97152 32870 ft 453 kts 92°
2026-05-06 15:11 52.12417 3.02280 33171 ft 453 kts 91°
2026-05-06 15:11 52.12374 3.07402 33441 ft 453 kts 92°
2026-05-06 15:11 52.12329 3.12518 33732 ft 452 kts 92°
2026-05-06 15:12 52.12282 3.17629 34005 ft 452 kts 92°
2026-05-06 15:12 52.12233 3.22739 34228 ft 452 kts 92°
2026-05-06 15:12 52.12181 3.27859 34403 ft 453 kts 92°
2026-05-06 15:12 52.12126 3.32983 34591 ft 453 kts 92°
2026-05-06 15:13 52.12069 3.38098 34774 ft 454 kts 92°
2026-05-06 15:13 52.11969 3.46657 34919 ft 449 kts 92°
2026-05-06 15:14 52.11843 3.56716 34917 ft 446 kts 92°
2026-05-06 15:14 52.11706 3.66931 34928 ft 451 kts 93°
2026-05-06 15:15 52.11561 3.77117 34925 ft 457 kts 93°
2026-05-06 15:15 52.11406 3.87478 34916 ft 458 kts 93°
2026-05-06 15:16 52.11240 3.97850 34905 ft 458 kts 93°
2026-05-06 15:16 52.11066 4.08167 34883 ft 454 kts 93°
2026-05-06 15:17 52.10885 4.18375 34883 ft 449 kts 93°
2026-05-06 15:17 52.10698 4.28468 34880 ft 445 kts 93°
2026-05-06 15:18 52.10502 4.38498 34890 ft 444 kts 93°
2026-05-06 15:18 52.10297 4.48580 34892 ft 448 kts 94°
2026-05-06 15:19 52.10081 4.58761 34891 ft 452 kts 93°
2026-05-06 15:19 52.09856 4.69000 34888 ft 453 kts 94°
2026-05-06 15:20 52.09622 4.79255 34897 ft 454 kts 94°
2026-05-06 15:20 52.09378 4.89510 34899 ft 453 kts 94°
2026-05-06 15:21 52.09127 4.99726 34895 ft 452 kts 94°
2026-05-06 15:21 52.08868 5.09900 34876 ft 448 kts 94°
2026-05-06 15:22 52.08603 5.19960 34879 ft 444 kts 94°
2026-05-06 15:22 52.08330 5.29997 34888 ft 445 kts 94°
2026-05-06 15:23 52.08045 5.40105 34896 ft 450 kts 94°
2026-05-06 15:23 52.07751 5.50307 34889 ft 453 kts 94°
2026-05-06 15:24 52.07446 5.60558 34879 ft 454 kts 95°
2026-05-06 15:24 52.07134 5.70795 34878 ft 453 kts 95°
2026-05-06 15:25 52.06815 5.80959 34874 ft 447 kts 95°
2026-05-06 15:25 52.06008 5.90893 34890 ft 442 kts 102°
2026-05-06 15:26 52.04830 6.00712 34893 ft 445 kts 103°
2026-05-06 15:26 52.03629 6.10609 34890 ft 448 kts 103°
2026-05-06 15:27 52.02452 6.20578 34900 ft 451 kts 103°
2026-05-06 15:27 52.01284 6.30597 34880 ft 452 kts 102°
2026-05-06 15:28 52.00122 6.40544 34865 ft 445 kts 103°
2026-05-06 15:28 51.98965 6.50372 34872 ft 443 kts 103°
2026-05-06 15:29 51.97799 6.60178 34872 ft 443 kts 103°
2026-05-06 15:29 51.96624 6.69986 34880 ft 443 kts 103°
2026-05-06 15:30 51.95439 6.79805 34863 ft 445 kts 103°
2026-05-06 15:30 51.94249 6.89593 34867 ft 446 kts 103°
2026-05-06 15:31 51.93041 6.99450 34869 ft 446 kts 103°
2026-05-06 15:31 51.91824 7.09319 34859 ft 447 kts 103°
2026-05-06 15:32 51.89980 7.24127 34860 ft 448 kts 103°
2026-05-06 15:32 51.88737 7.34023 34856 ft 449 kts 103°
2026-05-06 15:33 51.87485 7.43921 34859 ft 449 kts 104°
2026-05-06 15:33 51.86221 7.53834 34850 ft 450 kts 104°
2026-05-06 15:34 51.84952 7.63727 34840 ft 449 kts 104°
2026-05-06 15:34 51.83673 7.73616 34845 ft 449 kts 104°
2026-05-06 15:35 51.82388 7.83490 34843 ft 449 kts 104°
2026-05-06 15:35 51.81092 7.93378 34839 ft 450 kts 104°
2026-05-06 15:36 51.79788 8.03252 34839 ft 450 kts 104°
2026-05-06 15:36 51.78473 8.13142 34835 ft 451 kts 105°
2026-05-06 15:37 51.77148 8.23047 34829 ft 451 kts 105°
2026-05-06 15:37 51.75814 8.32940 34831 ft 452 kts 105°
2026-05-06 15:38 51.74469 8.42857 34829 ft 452 kts 105°
2026-05-06 15:38 51.73123 8.52708 34827 ft 453 kts 105°
2026-05-06 15:39 51.71760 8.62620 34826 ft 453 kts 105°
2026-05-06 15:39 51.70387 8.72543 34828 ft 453 kts 105°
2026-05-06 15:40 51.69005 8.82458 34827 ft 453 kts 105°
2026-05-06 15:40 51.67614 8.92366 34822 ft 453 kts 106°
2026-05-06 15:41 51.66216 9.02267 34816 ft 454 kts 106°
2026-05-06 15:41 51.64806 9.12185 34801 ft 454 kts 106°
2026-05-06 15:42 51.63388 9.22097 34804 ft 454 kts 106°
2026-05-06 15:42 51.61960 9.32011 34798 ft 455 kts 106°
2026-05-06 15:43 51.60523 9.41921 34812 ft 455 kts 106°
2026-05-06 15:43 51.59073 9.51857 34796 ft 457 kts 107°
2026-05-06 15:44 51.57613 9.61802 34794 ft 457 kts 107°
2026-05-06 15:44 51.56147 9.71727 34781 ft 456 kts 107°
2026-05-06 15:45 51.54675 9.81630 34780 ft 455 kts 107°
2026-05-06 15:45 51.53197 9.91503 34775 ft 454 kts 107°
2026-05-06 15:46 51.51714 10.01353 34777 ft 454 kts 107°
2026-05-06 15:46 51.50223 10.11197 34767 ft 454 kts 107°
2026-05-06 15:47 51.48718 10.21059 34770 ft 456 kts 107°
2026-05-06 15:47 51.47198 10.30966 34770 ft 458 kts 108°
2026-05-06 15:48 51.45666 10.40897 34756 ft 460 kts 108°
2026-05-06 15:48 51.44119 10.50859 34763 ft 460 kts 108°
2026-05-06 15:49 51.42565 10.60811 34759 ft 460 kts 108°
2026-05-06 15:49 51.41006 10.70731 34748 ft 459 kts 108°
2026-05-06 15:50 51.39459 10.80512 34750 ft 458 kts 108°
2026-05-06 15:50 51.37889 10.90382 34755 ft 457 kts 109°
2026-05-06 15:51 51.36313 11.00228 34749 ft 456 kts 109°
2026-05-06 15:51 51.34731 11.10054 34753 ft 455 kts 109°
2026-05-06 15:52 51.33148 11.19831 34755 ft 454 kts 109°
2026-05-06 15:52 51.31560 11.29580 34754 ft 453 kts 109°
2026-05-06 15:53 51.29979 11.39234 34753 ft 451 kts 109°
2026-05-06 15:53 51.28383 11.48917 34764 ft 451 kts 109°
2026-05-06 15:54 51.26774 11.58621 34768 ft 453 kts 109°
2026-05-06 15:54 51.25149 11.68369 34768 ft 455 kts 109°
2026-05-06 15:55 51.23519 11.78097 34755 ft 453 kts 109°
2026-05-06 15:55 51.21885 11.87801 34760 ft 452 kts 110°
2026-05-06 15:56 51.20247 11.97466 34764 ft 452 kts 110°
2026-05-06 15:56 51.18601 12.07123 34761 ft 452 kts 110°
2026-05-06 15:57 51.16944 12.16789 34769 ft 453 kts 110°
2026-05-06 15:57 51.15273 12.26482 34760 ft 455 kts 110°
2026-05-06 15:58 51.13588 12.36208 34757 ft 457 kts 110°
2026-05-06 15:58 51.12172 12.44336 34752 ft 459 kts 110°
2026-05-06 15:59 51.10457 12.54140 34747 ft 460 kts 110°
2026-05-06 15:59 51.08733 12.63939 34743 ft 460 kts 110°
2026-05-06 16:00 51.07002 12.73728 34750 ft 460 kts 111°
2026-05-06 16:00 51.05261 12.83509 34760 ft 460 kts 111°
2026-05-06 16:01 51.03509 12.93299 34754 ft 461 kts 111°
2026-05-06 16:01 51.01751 13.03079 34751 ft 460 kts 111°
2026-05-06 16:02 50.99977 13.12879 34841 ft 466 kts 111°
2026-05-06 16:02 50.99075 13.17842 34981 ft 468 kts 111°
2026-05-06 16:02 50.98174 13.22794 35202 ft 467 kts 111°
2026-05-06 16:03 50.97272 13.27737 35451 ft 466 kts 111°
2026-05-06 16:03 50.96369 13.32675 35683 ft 465 kts 111°
2026-05-06 16:03 50.95468 13.37588 35919 ft 464 kts 111°
2026-05-06 16:03 50.94563 13.42510 36122 ft 464 kts 111°
2026-05-06 16:04 50.93657 13.47421 36329 ft 464 kts 111°
2026-05-06 16:04 50.92751 13.52319 36531 ft 463 kts 111°
2026-05-06 16:04 50.91843 13.57210 36701 ft 463 kts 111°
2026-05-06 16:04 50.90931 13.62114 36770 ft 465 kts 111°
2026-05-06 16:05 50.89092 13.71957 36763 ft 466 kts 111°
2026-05-06 16:05 50.87255 13.81757 36767 ft 463 kts 111°
2026-05-06 16:06 50.85419 13.91494 36765 ft 461 kts 111°
2026-05-06 16:06 50.82898 14.00621 36778 ft 447 kts 128°
2026-05-06 16:07 50.78954 14.08000 36780 ft 437 kts 141°
2026-05-06 16:07 50.74624 14.14752 36769 ft 438 kts 141°
2026-05-06 16:08 50.70276 14.21537 36776 ft 441 kts 141°
2026-05-06 16:08 50.65918 14.28384 36765 ft 443 kts 141°
2026-05-06 16:09 50.61576 14.35219 36768 ft 445 kts 141°
2026-05-06 16:09 50.57187 14.42115 36761 ft 447 kts 141°
2026-05-06 16:10 50.52779 14.49024 36766 ft 447 kts 141°
2026-05-06 16:10 50.48372 14.55908 36763 ft 447 kts 141°
2026-05-06 16:11 50.43965 14.62775 36759 ft 445 kts 141°
2026-05-06 16:11 50.39591 14.69574 36756 ft 440 kts 141°
2026-05-06 16:12 50.35258 14.76288 36757 ft 436 kts 141°
2026-05-06 16:12 50.30952 14.82937 36764 ft 434 kts 141°
2026-05-06 16:13 50.26648 14.89566 36765 ft 434 kts 141°
2026-05-06 16:13 50.22330 14.96195 36770 ft 438 kts 141°
2026-05-06 16:14 50.17951 15.02899 36766 ft 443 kts 141°
2026-05-06 16:14 50.13532 15.09652 36758 ft 446 kts 141°
2026-05-06 16:15 50.09085 15.16432 36755 ft 447 kts 141°
2026-05-06 16:15 50.04674 15.23147 36749 ft 439 kts 141°
2026-05-06 16:16 50.00325 15.29743 36747 ft 437 kts 141°
2026-05-06 16:16 49.95940 15.36364 36762 ft 441 kts 141°
2026-05-06 16:17 49.91525 15.43017 36744 ft 442 kts 141°
2026-05-06 16:17 49.87157 15.49590 36740 ft 439 kts 141°
2026-05-06 16:18 49.82790 15.56142 36740 ft 437 kts 141°
2026-05-06 16:18 49.78387 15.62721 36755 ft 442 kts 142°
2026-05-06 16:19 49.73944 15.69344 36756 ft 445 kts 141°
2026-05-06 16:19 49.69469 15.76001 36751 ft 448 kts 141°
2026-05-06 16:20 49.64965 15.82686 36756 ft 449 kts 141°
2026-05-06 16:20 49.60453 15.89366 36757 ft 449 kts 142°
2026-05-06 16:21 49.55945 15.96021 36758 ft 448 kts 142°
2026-05-06 16:21 49.51452 16.02633 36746 ft 446 kts 142°
2026-05-06 16:22 49.46970 16.09213 36745 ft 444 kts 142°
2026-05-06 16:22 49.42504 16.15751 36746 ft 442 kts 142°
2026-05-06 16:23 49.38050 16.22254 36755 ft 441 kts 142°
2026-05-06 16:23 49.33604 16.28727 36763 ft 441 kts 142°
2026-05-06 16:24 49.29149 16.35196 36766 ft 441 kts 142°
2026-05-06 16:24 49.24681 16.41666 36764 ft 443 kts 141°
2026-05-06 16:25 49.20194 16.48149 36754 ft 445 kts 141°
2026-05-06 16:25 49.15681 16.54652 36744 ft 447 kts 141°
2026-05-06 16:26 49.11141 16.61177 36747 ft 449 kts 141°
2026-05-06 16:26 49.06615 16.67666 36745 ft 450 kts 141°
2026-05-06 16:27 49.02039 16.74209 36752 ft 452 kts 141°
2026-05-06 16:27 48.97450 16.80755 36745 ft 452 kts 141°
2026-05-06 16:28 48.92852 16.87294 36747 ft 452 kts 141°
2026-05-06 16:28 48.88258 16.93813 36759 ft 452 kts 141°
2026-05-06 16:29 48.83665 17.00313 36757 ft 451 kts 141°
2026-05-06 16:29 48.79079 17.06784 36761 ft 450 kts 142°
2026-05-06 16:30 48.75040 17.11640 36779 ft 444 kts 149°
2026-05-06 16:30 48.69118 17.17851 36770 ft 443 kts 150°
2026-05-06 16:31 48.64048 17.23137 36780 ft 442 kts 149°
2026-05-06 16:31 48.58998 17.28460 36778 ft 442 kts 149°
2026-05-06 16:32 48.53958 17.33795 36793 ft 443 kts 149°
2026-05-06 16:32 48.48913 17.39131 36790 ft 443 kts 149°
2026-05-06 16:33 48.43858 17.44463 36792 ft 444 kts 149°
2026-05-06 16:34 48.36251 17.52462 36797 ft 445 kts 149°
2026-05-06 16:34 48.31162 17.57795 36800 ft 446 kts 149°
2026-05-06 16:35 48.26066 17.63123 36804 ft 447 kts 149°
2026-05-06 16:35 48.20955 17.68453 36811 ft 448 kts 149°
2026-05-06 16:36 48.15833 17.73781 36818 ft 448 kts 149°
2026-05-06 16:36 48.10706 17.79102 36830 ft 449 kts 149°
2026-05-06 16:37 48.05565 17.84424 36824 ft 449 kts 149°
2026-05-06 16:37 48.00428 17.89729 36837 ft 449 kts 149°
2026-05-06 16:38 47.95302 17.95009 36832 ft 446 kts 149°
2026-05-06 16:38 47.90198 18.00255 36848 ft 446 kts 149°
2026-05-06 16:39 47.85082 18.05497 36850 ft 446 kts 149°
2026-05-06 16:39 47.79963 18.10731 36856 ft 447 kts 149°
2026-05-06 16:40 47.74862 18.15935 36853 ft 448 kts 148°
2026-05-06 16:40 47.69723 18.21164 36860 ft 448 kts 148°
2026-05-06 16:41 47.64541 18.26424 36864 ft 449 kts 148°
2026-05-06 16:41 47.59378 18.31652 36863 ft 449 kts 148°
2026-05-06 16:42 47.54213 18.36870 36870 ft 449 kts 148°
2026-05-06 16:42 47.49056 18.42067 36860 ft 448 kts 148°
2026-05-06 16:43 47.43919 18.47232 36861 ft 446 kts 148°
2026-05-06 16:43 47.38834 18.52332 36873 ft 444 kts 148°
2026-05-06 16:44 47.33723 18.57445 36872 ft 444 kts 148°
2026-05-06 16:44 47.28608 18.62550 36881 ft 444 kts 148°
2026-05-06 16:45 47.23491 18.67645 36888 ft 445 kts 148°
2026-05-06 16:45 47.19192 18.71915 36886 ft 446 kts 148°
2026-05-06 16:46 47.14039 18.77024 36885 ft 447 kts 148°
2026-05-06 16:46 47.08874 18.82133 36889 ft 449 kts 148°
2026-05-06 16:47 47.03679 18.87259 36884 ft 450 kts 148°
2026-05-06 16:47 46.98478 18.92379 36883 ft 450 kts 148°
2026-05-06 16:48 46.93287 18.97477 36888 ft 448 kts 148°
2026-05-06 16:48 46.88123 19.02537 36886 ft 447 kts 148°
2026-05-06 16:49 46.82962 19.07581 36892 ft 446 kts 149°
2026-05-06 16:49 46.77841 19.12574 36893 ft 445 kts 148°
2026-05-06 16:50 46.72687 19.17588 36896 ft 446 kts 149°
2026-05-06 16:50 46.67519 19.22604 36898 ft 447 kts 149°
2026-05-06 16:51 46.62332 19.27626 36898 ft 448 kts 148°
2026-05-06 16:51 46.57123 19.32658 36898 ft 450 kts 149°
2026-05-06 16:52 46.51905 19.37687 36900 ft 451 kts 148°
2026-05-06 16:52 46.46664 19.42727 36898 ft 452 kts 149°
2026-05-06 16:53 46.41408 19.47769 36902 ft 453 kts 148°
2026-05-06 16:53 46.36146 19.52805 36900 ft 454 kts 149°
2026-05-06 16:54 46.30872 19.57841 36901 ft 454 kts 148°
2026-05-06 16:54 46.25597 19.62868 36902 ft 454 kts 149°
2026-05-06 16:55 46.20321 19.67884 36897 ft 454 kts 148°
2026-05-06 16:55 46.15058 19.72914 36895 ft 453 kts 148°
2026-05-06 16:56 46.09835 19.77985 36902 ft 453 kts 148°
2026-05-06 16:56 46.04611 19.83057 36898 ft 452 kts 148°
2026-05-06 16:57 45.99391 19.88102 36903 ft 452 kts 148°
2026-05-06 16:57 45.94169 19.93131 36901 ft 452 kts 148°
2026-05-06 16:58 45.88949 19.98146 36899 ft 451 kts 148°
2026-05-06 16:58 45.83729 20.03149 36901 ft 451 kts 148°
2026-05-06 16:59 45.78501 20.08149 36904 ft 452 kts 148°
2026-05-06 16:59 45.73269 20.13141 36905 ft 452 kts 148°
2026-05-06 17:00 45.68026 20.18132 36901 ft 453 kts 148°
2026-05-06 17:00 45.62827 20.23233 36905 ft 455 kts 146°
2026-05-06 17:01 45.57690 20.28526 36902 ft 456 kts 146°
2026-05-06 17:01 45.52584 20.33787 36901 ft 456 kts 146°
2026-05-06 17:02 45.47427 20.39050 36908 ft 456 kts 146°
2026-05-06 17:02 45.42263 20.44288 36908 ft 456 kts 146°
2026-05-06 17:03 45.37094 20.49515 36904 ft 456 kts 146°
2026-05-06 17:03 45.31924 20.54729 36901 ft 456 kts 146°
2026-05-06 17:04 45.26753 20.59933 36915 ft 456 kts 146°
2026-05-06 17:04 45.21597 20.65110 36916 ft 456 kts 146°
2026-05-06 17:05 45.16385 20.70332 36901 ft 459 kts 146°
2026-05-06 17:05 45.11191 20.75525 36906 ft 455 kts 146°
2026-05-06 17:06 45.06017 20.80687 36916 ft 455 kts 146°
2026-05-06 17:06 45.00828 20.85850 36925 ft 457 kts 146°
2026-05-06 17:07 44.95621 20.91020 36914 ft 458 kts 146°
2026-05-06 17:07 44.90414 20.96179 36913 ft 457 kts 146°
2026-05-06 17:08 44.85212 21.01322 36924 ft 456 kts 146°
2026-05-06 17:08 44.80016 21.06447 36922 ft 456 kts 146°
2026-05-06 17:09 44.74822 21.11558 36915 ft 456 kts 146°
2026-05-06 17:09 44.69629 21.16656 36926 ft 456 kts 146°
2026-05-06 17:10 44.64421 21.21758 36925 ft 456 kts 146°
2026-05-06 17:10 44.59211 21.26851 36918 ft 457 kts 146°
2026-05-06 17:11 44.53988 21.31945 36922 ft 457 kts 146°
2026-05-06 17:11 44.48829 21.36967 36915 ft 451 kts 146°
2026-05-06 17:12 44.43691 21.41956 36824 ft 450 kts 146°
2026-05-06 17:12 44.41121 21.44447 36492 ft 447 kts 146°
2026-05-06 17:12 44.38582 21.46906 36138 ft 442 kts 146°
2026-05-06 17:12 44.36064 21.49343 35781 ft 437 kts 146°
2026-05-06 17:13 44.33573 21.51751 35393 ft 435 kts 146°
2026-05-06 17:13 44.31095 21.54142 35017 ft 432 kts 146°
2026-05-06 17:13 44.28625 21.56524 34629 ft 430 kts 146°
2026-05-06 17:13 44.26174 21.58885 34252 ft 427 kts 146°
2026-05-06 17:14 44.23735 21.61232 33872 ft 425 kts 146°
2026-05-06 17:14 44.21303 21.63569 33453 ft 423 kts 146°
2026-05-06 17:14 44.18890 21.65887 33052 ft 420 kts 146°
2026-05-06 17:14 44.16489 21.68191 32670 ft 418 kts 147°
2026-05-06 17:15 44.14103 21.70478 32300 ft 415 kts 146°
2026-05-06 17:15 44.11732 21.72747 31940 ft 413 kts 146°
2026-05-06 17:15 44.09333 21.75041 31607 ft 427 kts 146°
2026-05-06 17:15 44.06834 21.77426 31243 ft 445 kts 146°
2026-05-06 17:16 44.04244 21.79896 30832 ft 456 kts 146°
2026-05-06 17:16 44.01629 21.82389 30413 ft 455 kts 146°
2026-05-06 17:16 43.99038 21.84857 30006 ft 449 kts 146°
2026-05-06 17:16 43.96474 21.87294 29545 ft 444 kts 146°
2026-05-06 17:17 43.93940 21.89700 29136 ft 438 kts 146°
2026-05-06 17:17 43.91430 21.92082 28726 ft 436 kts 146°
2026-05-06 17:17 43.88926 21.94457 28329 ft 436 kts 146°
2026-05-06 17:17 43.86426 21.96824 27921 ft 434 kts 146°
2026-05-06 17:18 43.83946 21.99172 27523 ft 431 kts 146°
2026-05-06 17:18 43.81476 22.01508 27120 ft 429 kts 146°
2026-05-06 17:18 43.79023 22.03824 26728 ft 426 kts 146°
2026-05-06 17:18 43.76585 22.06125 26337 ft 423 kts 146°
2026-05-06 17:19 43.74155 22.08417 25942 ft 421 kts 146°
2026-05-06 17:19 43.71742 22.10689 25570 ft 418 kts 146°
2026-05-06 17:19 43.69345 22.12945 25188 ft 416 kts 146°
2026-05-06 17:19 43.66963 22.15185 24807 ft 414 kts 146°
2026-05-06 17:20 43.64587 22.17416 24429 ft 411 kts 146°
2026-05-06 17:20 43.62228 22.19629 24052 ft 409 kts 146°
2026-05-06 17:20 43.59909 22.21802 23681 ft 407 kts 146°
2026-05-06 17:20 43.57573 22.23990 23239 ft 405 kts 146°
2026-05-06 17:21 43.55247 22.26166 22826 ft 402 kts 146°
2026-05-06 17:21 43.52941 22.28322 22429 ft 399 kts 146°
2026-05-06 17:21 43.50654 22.30457 22055 ft 395 kts 146°
2026-05-06 17:21 43.48388 22.32571 21678 ft 392 kts 146°
2026-05-06 17:22 43.46144 22.34662 21310 ft 388 kts 146°
2026-05-06 17:22 43.43912 22.36740 20954 ft 389 kts 146°
2026-05-06 17:22 43.41625 22.38868 20584 ft 393 kts 146°
2026-05-06 17:22 43.39386 22.40950 20216 ft 394 kts 146°
2026-05-06 17:23 43.37126 22.43048 19841 ft 391 kts 146°
2026-05-06 17:23 43.34847 22.45163 19465 ft 388 kts 146°
2026-05-06 17:23 43.32649 22.47200 19102 ft 385 kts 146°
2026-05-06 17:23 43.30435 22.49251 18733 ft 383 kts 146°
2026-05-06 17:24 43.28203 22.51316 18373 ft 381 kts 146°
2026-05-06 17:24 43.26045 22.53312 17968 ft 378 kts 146°
2026-05-06 17:24 43.23871 22.55320 17567 ft 376 kts 146°
2026-05-06 17:24 43.21700 22.57323 17194 ft 375 kts 146°
2026-05-06 17:25 43.19546 22.59310 16811 ft 373 kts 146°
2026-05-06 17:25 43.17404 22.61283 16447 ft 369 kts 146°
2026-05-06 17:25 43.15284 22.63235 16083 ft 365 kts 146°
2026-05-06 17:25 43.13188 22.65163 15733 ft 361 kts 146°
2026-05-06 17:26 43.11117 22.67067 15380 ft 358 kts 146°
2026-05-06 17:26 43.09050 22.68965 15028 ft 356 kts 146°
2026-05-06 17:26 43.07001 22.70845 14683 ft 355 kts 146°
2026-05-06 17:26 43.04954 22.72723 14329 ft 353 kts 146°
2026-05-06 17:27 43.02916 22.74591 13986 ft 352 kts 146°
2026-05-06 17:27 43.00966 22.76586 13588 ft 350 kts 133°
2026-05-06 17:27 42.99703 22.79383 13243 ft 346 kts 111°
2026-05-06 17:27 42.98934 22.82465 13014 ft 341 kts 107°
2026-05-06 17:28 42.98256 22.85554 12711 ft 340 kts 106°
2026-05-06 17:28 42.97597 22.88650 12466 ft 338 kts 106°
2026-05-06 17:28 42.96949 22.91731 12242 ft 337 kts 105°
2026-05-06 17:28 42.96308 22.94802 12018 ft 336 kts 105°
2026-05-06 17:29 42.95674 22.97867 11744 ft 334 kts 105°
2026-05-06 17:29 42.95052 23.00898 11431 ft 330 kts 105°
2026-05-06 17:29 42.94440 23.03897 11136 ft 325 kts 105°
2026-05-06 17:29 42.93859 23.06760 10844 ft 322 kts 105°
2026-05-06 17:30 42.93268 23.09696 10552 ft 319 kts 105°
2026-05-06 17:30 42.92883 23.11620 10368 ft 317 kts 105°
2026-05-06 17:30 42.92307 23.14517 10073 ft 315 kts 106°
2026-05-06 17:30 42.91742 23.17376 9870 ft 309 kts 105°
2026-05-06 17:31 42.91189 23.20190 9626 ft 305 kts 105°
2026-05-06 17:31 42.90645 23.22967 9368 ft 302 kts 105°
2026-05-06 17:31 42.90109 23.25718 9118 ft 300 kts 105°
2026-05-06 17:31 42.89575 23.28459 8854 ft 298 kts 105°
2026-05-06 17:32 42.89042 23.31185 8606 ft 296 kts 105°
2026-05-06 17:32 42.88511 23.33898 8350 ft 296 kts 105°
2026-05-06 17:32 42.87861 23.36539 8103 ft 293 kts 114°
2026-05-06 17:32 42.87048 23.39066 8041 ft 291 kts 115°
2026-05-06 17:33 42.86213 23.41564 7997 ft 289 kts 115°
2026-05-06 17:33 42.85379 23.44041 7989 ft 286 kts 115°
2026-05-06 17:33 42.84547 23.46498 7947 ft 287 kts 115°
2026-05-06 17:33 42.83700 23.48988 7682 ft 290 kts 115°
2026-05-06 17:34 42.82858 23.51465 7439 ft 286 kts 116°
2026-05-06 17:34 42.82030 23.53905 7203 ft 283 kts 116°
2026-05-06 17:34 42.81212 23.56318 7046 ft 277 kts 115°
2026-05-06 17:34 42.80422 23.58655 6993 ft 266 kts 116°
2026-05-06 17:35 42.79659 23.60913 6999 ft 261 kts 115°
2026-05-06 17:35 42.78906 23.63142 6999 ft 258 kts 115°
2026-05-06 17:35 42.78167 23.65327 7020 ft 251 kts 116°
2026-05-06 17:36 42.76726 23.69591 6998 ft 245 kts 116°
2026-05-06 17:36 42.76011 23.71709 6992 ft 247 kts 116°
2026-05-06 17:36 42.75297 23.73821 6991 ft 243 kts 116°
2026-05-06 17:36 42.74606 23.75867 6991 ft 231 kts 116°
2026-05-06 17:37 42.73920 23.77805 6985 ft 225 kts 125°
2026-05-06 17:37 42.72722 23.79039 6999 ft 218 kts 167°
2026-05-06 17:37 42.71220 23.78975 7011 ft 221 kts 200°
2026-05-06 17:37 42.69877 23.77920 6884 ft 226 kts 219°
2026-05-06 17:38 42.68791 23.76372 6636 ft 227 kts 235°
2026-05-06 17:38 42.68073 23.74469 6311 ft 225 kts 251°
2026-05-06 17:38 42.67897 23.72337 5789 ft 231 kts 270°
2026-05-06 17:38 42.67987 23.70203 5462 ft 227 kts 272°
2026-05-06 17:39 42.68102 23.68087 5157 ft 223 kts 272°
2026-05-06 17:39 42.68222 23.66007 4867 ft 219 kts 273°
2026-05-06 17:39 42.68341 23.63947 4587 ft 217 kts 272°
2026-05-06 17:39 42.68458 23.61917 4300 ft 213 kts 272°
2026-05-06 17:40 42.68574 23.59933 4009 ft 208 kts 273°
2026-05-06 17:40 42.68686 23.58004 3761 ft 201 kts 272°
2026-05-06 17:40 42.68795 23.56131 3485 ft 196 kts 273°
2026-05-06 17:40 42.68901 23.54316 3240 ft 187 kts 273°
2026-05-06 17:41 42.69000 23.52630 3028 ft 171 kts 273°
2026-05-06 17:41 42.69093 23.51027 2783 ft 171 kts 274°
2026-05-06 17:41 42.69189 23.49472 2538 ft 165 kts 272°
2026-05-06 17:41 42.69279 23.47923 2358 ft 165 kts 272°
2026-05-06 17:42 42.69369 23.46352 2137 ft 163 kts 273°
2026-05-06 17:42 42.69463 23.44870 1933 ft 157 kts 272°
2026-05-06 17:42 42.69551 23.43397 1747 ft 151 kts 271°
2026-05-06 17:42 42.69620 23.42248 1749 ft 91 kts 275°
2026-05-06 17:43 42.69634 23.41781 1747 ft 38 kts 262°
2026-05-06 17:43 42.69581 23.41556 1751 ft 21 kts 246°
2026-05-06 17:43 42.69541 23.41443 1746 ft 11 kts 244°
2026-05-06 17:43 42.69507 23.41346 1752 ft 11 kts 244°
2026-05-06 17:44 42.69479 23.41246 1747 ft 12 kts 239°
2026-05-06 17:44 42.69398 23.41200 1743 ft 14 kts 191°
2026-05-06 17:44 42.69296 23.41173 1752 ft 16 kts 192°
2026-05-06 17:44 42.69191 23.41143 1744 ft 13 kts 192°
2026-05-06 17:45 42.69128 23.41099 1746 ft 10 kts 241°
2026-05-06 17:45 42.69085 23.41067 1752 ft 7 kts 171°
2026-05-06 17:45 42.69038 23.41089 1752 ft 7 kts 162°
2026-05-06 17:45 42.69026 23.41094 1746 ft 0 kts 163°